Location: Passau
(48.5721°N, 13.4363°E)
Time: 06:12:28
(UTC+01:00)

ISS - Pass Details

Date: 11 January 2018
Orbit: 402 x 407 km, 51.6° (Epoch: 19 January)

Event Time Altitude Azimuth Distance (km) Brightness Sun altitude
Exits shadow 07:13:59 - 279° (W) 1,606 -1.4 -6.9°
Reaches altitude 10° 07:14:22 10° 275° (W) 1,467 -1.6 -6.8°
Maximum altitude 07:17:10 26° 217° (SW) 844 -2.3 -6.4°
Drops below altitude 10° 07:19:58 10° 159° (SSE) 1,462 -0.2 -6.0°
Sets 07:22:14 0° 146° (SE) 2,319 1.2 -5.7°
